FENGYUN 1C DEB

Satellite information

Favourite Embed

Satellite Type and Status

DEBRISIN ORBIT

Key statistics

Satellite FENGYUN 1C DEB at a glance.

Uptime

9495

Days in orbit

Revolutions

≈ 14.3

Per day

Orbit

SSO

Sun Synchronous Orbit

Inclination

98.6

Latest

Satellite identification and parameters

Extended collection of information and parameters for FENGYUN 1C DEB.

Object identification

Identified? True

Debris? True

Object name: FENGYUN 1C DEB

International designator: 1999-025BUM

Object number (NORAD): 31449

Object ID (CCSDS): 31449

Country: PEOPLES REPUBLIC OF CHINA (PRC)

Current information (Y/N): Y

RCS size: SMALL

Orbital parameters

Period: 100.462 minutes

Inclination: 98.5792 deg

SMA: 7158.596 km

Apoapsis: 884.682 km

Periapsis: 676.239 km

RAAN: 187.5697 deg

Eccentricy: 0.0145589

Argument of periapsis: 198.4717 deg

Mean anomaly: 161.1149 deg

Mean motion: 14.33378938 rev/day

Mean motion (dot): 0.00000793 rev/day2

B* drag term: 0.00027083 1/REarth

Two-line elements (TLE)

Creation date: May 8, 2025, 3:01 a.m.

Reference frame: TEME

Reference center: EARTH

Epoch: May 6, 2025, 11:22 p.m. UTC

TLE line 0: 0 FENGYUN 1C DEB

TLE line 1: 1 31449U 99025BUM 25126.97405902 .00000793 00000-0 27083-3 0 9990

TLE line 2: 2 31449 98.5792 187.5697 0145589 198.4717 161.1149 14.33378938944880

Live tracking on map

Real-time ground track for satellite FENGYUN 1C DEB.

In-orbit conjunctions

A list of the most updated potential collisions computed for object FENGYUN 1C DEB.

Target Orbit TCA Probability of collision Miss distance Type
COSMOS 886 DEB MEO 2024-11-12 13:30:15 0.001694695 554.0 (m) DEBRIS
FENGYUN 1C DEB SSO 2024-08-25 17:40:15 0.0001622367 206.0 (m) DEBRIS
DELTA 1 DEB SSO 2024-08-24 22:00:09 0.0001009419 626.0 (m) DEBRIS

Associated space launch

Chinese polar orbiting meteorological satellite

FENGYUN 1C DEB was lifted into orbit during the mission ‘Long March 4B | Feng Yun 1C’, on board a Long March 4B space rocket.

The launch took place on May 10, 1999, 1:33 a.m. from Launch Complex 7.

For more information about the launch, click the button.

Launch to space Long March 4B | Feng Yun 1C
Long March 4B | Feng Yun 1C

Agency: N/A

Status: Launch Successful

Launch date: May 10, 1999, 1:33 a.m. UTC

Rocket: Long March 4B

Launch pad: Launch Complex 7

Location: Taiyuan Satellite Launch Center, People's Republic of China

...

Latest news about this satellite

There are no fresh news available about this satellite. Check back as we update our databases every day.


Newsletter sign-up

Weekly statistics, charts and insights to help you stay on top of the space industry.